リニア彗星

C/2002 VQ94 ( LINEAR )

English version
Home page
Total 6,336 html files since Dec. 4, 1995
Updated on July 17, 2008

---------------------------------------------------------------------

・ プロフィール

発見日 2002年11月11日
発見光度 18.7等
発見者 Lincoln Laboratory Near-Earth Asteroid Research project

・ 写真集

・ 軌道要素

The following orbital elements are taken from MPC 59874:

Epoch 2006 Jan. 25.0 TT = JDT 2453760.5
T 2006 Feb. 6.6524 TT                                   MPC
q   6.796620             (2000.0)            P               Q
z  +0.004872       Peri.  100.0371      -0.3312032      -0.7730938
 +/-0.000000       Node    35.0166      -0.2142201      -0.4967306
e   0.966884       Incl.   70.5157      +0.9189201      -0.3944422
From 912 observations 2001 Oct. 27-2007 May 30, mean residual 0".5.

・ 星図

・ 光度変化

        m1 = 4.0 + 5 logΔ + 10.0 log r(t - 200)

---------------------------------------------------------------------

軌道要素はMPCのEphemerides and Orbital Elementsに掲載されたものです。
星図は StellaNavigator Ver.2.0 for Windows (アストロアーツ 編著 / アスキー出版局刊) で作成したものです。
光度グラフはComet for Windowsで作成したものです。

---------------------------------------------------------------------

Copyright(C) 1995-2008 Seiichi Yoshida (comet@aerith.net). All rights reserved.